Hourly Weather Aba-el-Baul

Today, 25 October, Sunday

Time Temperature Precipitation Wind Pressure Humidity
00:00 +25°C° 0 mm 2 mps 755 mmHg 51%
01:00 +24°C° 0 mm 2 mps 755 mmHg 52%
02:00 +24°C° 0 mm 2 mps 755 mmHg 52%
03:00 +24°C° 0 mm 2 mps 755 mmHg 52%
04:00 +24°C° 0 mm 2 mps 755 mmHg 57%
05:00 +23°C° 0 mm 2 mps 756 mmHg 62%
06:00 +23°C° 0 mm 2 mps 756 mmHg 66%
07:00 +26°C° 0 mm 2 mps 756 mmHg 56%
08:00 +30°C° 0 mm 2 mps 757 mmHg 46%
09:00 +34°C° 0 mm 2 mps 757 mmHg 36%
10:00 +35°C° 0 mm 2 mps 756 mmHg 32%
11:00 +36°C° 0 mm 3 mps 756 mmHg 28%
12:00 +37°C° 0 mm 3 mps 756 mmHg 24%
13:00 +36°C° 0 mm 3 mps 755 mmHg 25%
14:00 +36°C° 0 mm 3 mps 755 mmHg 25%
15:00 +36°C° 0 mm 4 mps 754 mmHg 26%
16:00 +34°C° 0 mm 3 mps 754 mmHg 31%
17:00 +30°C° 0 mm 3 mps 754 mmHg 36%
18:00 +28°C° 0 mm 3 mps 755 mmHg 41%
19:00 +28°C° 0 mm 3 mps 755 mmHg 44%
20:00 +27°C° 0 mm 3 mps 755 mmHg 47%
21:00 +27°C° 0 mm 3 mps 756 mmHg 50%
22:00 +26°C° 0 mm 3 mps 755 mmHg 54%
23:00 +26°C° 0 mm 2 mps 755 mmHg 57%

Tomorrow, 26 October, Monday

Time Temperature Precipitation Wind Pressure Humidity
00:00 +25°C° 0 mm 2 mps 755 mmHg 60%
01:00 +25°C° 0 mm 2 mps 755 mmHg 61%
02:00 +25°C° 0 mm 2 mps 755 mmHg 61%
03:00 +24°C° 0 mm 2 mps 755 mmHg 62%
04:00 +24°C° 0 mm 2 mps 755 mmHg 64%
05:00 +23°C° 0 mm 1 mps 756 mmHg 66%
06:00 +22°C° 0 mm 1 mps 756 mmHg 68%
07:00 +25°C° 0 mm 1 mps 756 mmHg 58%
08:00 +28°C° 0 mm 1 mps 757 mmHg 48%
09:00 +29°C° 0 mm 0 mps 757 mmHg 38%
10:00 +33°C° 0 mm 1 mps 756 mmHg 33%
11:00 +35°C° 0 mm 2 mps 756 mmHg 27%
12:00 +36°C° 0 mm 2 mps 756 mmHg 22%
13:00 +36°C° 0 mm 3 mps 755 mmHg 24%
14:00 +36°C° 0 mm 5 mps 755 mmHg 26%
15:00 +35°C° 0 mm 6 mps 754 mmHg 28%
16:00 +33°C° 0 mm 5 mps 755 mmHg 36%
17:00 +30°C° 0 mm 4 mps 755 mmHg 43%
18:00 +28°C° 0 mm 3 mps 755 mmHg 50%
19:00 +28°C° 0 mm 3 mps 755 mmHg 53%
20:00 +27°C° 0 mm 3 mps 755 mmHg 55%
21:00 +26°C° 0 mm 3 mps 756 mmHg 58%
22:00 +25°C° 0 mm 2 mps 755 mmHg 60%
23:00 +25°C° 0 mm 2 mps 755 mmHg 63%

Day after tomorrow, 27 October, Tuesday

Time Temperature Precipitation Wind Pressure Humidity
00:00 +24°C° 0 mm 2 mps 755 mmHg 65%
01:00 +24°C° 0 mm 2 mps 755 mmHg 67%
02:00 +23°C° 0 mm 2 mps 754 mmHg 69%
03:00 +23°C° 0 mm 2 mps 754 mmHg 71%
04:00 +23°C° 0 mm 2 mps 755 mmHg 71%
05:00 +23°C° 0 mm 2 mps 755 mmHg 71%
06:00 +21°C° 0 mm 2 mps 755 mmHg 71%
07:00 +25°C° 0 mm 2 mps 755 mmHg 61%
08:00 +28°C° 0 mm 2 mps 756 mmHg 51%
09:00 +31°C° 0 mm 2 mps 756 mmHg 41%
10:00 +32°C° 0 mm 2 mps 756 mmHg 35%
11:00 +34°C° 0 mm 2 mps 755 mmHg 30%
12:00 +36°C° 0 mm 3 mps 755 mmHg 24%
13:00 +35°C° 0 mm 4 mps 755 mmHg 27%
14:00 +35°C° 0 mm 5 mps 754 mmHg 31%
15:00 +35°C° 0 mm 6 mps 754 mmHg 34%
16:00 +33°C° 0 mm 5 mps 754 mmHg 41%
17:00 +30°C° 0 mm 4 mps 754 mmHg 48%
18:00 +28°C° 0 mm 2 mps 755 mmHg 55%
19:00 +27°C° 0 mm 2 mps 755 mmHg 59%
20:00 +26°C° 0 mm 2 mps 755 mmHg 63%
21:00 +25°C° 0 mm 2 mps 755 mmHg 68%
22:00 +25°C° 0 mm 2 mps 755 mmHg 71%
23:00 +24°C° 0 mm 2 mps 755 mmHg 74%

28 October, Wednesday

Time Temperature Precipitation Wind Pressure Humidity
00:00 +23°C° 0 mm 2 mps 755 mmHg 77%
01:00 +23°C° 0 mm 1 mps 754 mmHg 79%
02:00 +22°C° 0 mm 1 mps 754 mmHg 80%
03:00 +22°C° 0 mm 1 mps 754 mmHg 82%
04:00 +22°C° 0 mm 1 mps 754 mmHg 82%
05:00 +22°C° 0 mm 1 mps 755 mmHg 81%
06:00 +22°C° 0 mm 1 mps 755 mmHg 81%
07:00 +25°C° 0 mm 1 mps 756 mmHg 68%
08:00 +27°C° 0 mm 2 mps 756 mmHg 56%
09:00 +30°C° 0 mm 2 mps 756 mmHg 43%
10:00 +32°C° 0 mm 2 mps 756 mmHg 37%
11:00 +34°C° 0 mm 2 mps 756 mmHg 30%
12:00 +36°C° 0 mm 3 mps 755 mmHg 23%
13:00 +35°C° 0 mm 4 mps 755 mmHg 25%
14:00 +35°C° 0 mm 5 mps 755 mmHg 26%
15:00 +35°C° 0 mm 5 mps 754 mmHg 28%
16:00 +33°C° 0 mm 4 mps 754 mmHg 36%
17:00 +29°C° 0 mm 3 mps 755 mmHg 44%
18:00 +27°C° 0 mm 2 mps 755 mmHg 51%
19:00 +27°C° 0 mm 2 mps 755 mmHg 56%
20:00 +26°C° 0 mm 2 mps 755 mmHg 61%
21:00 +25°C° 0 mm 2 mps 756 mmHg 66%
22:00 +24°C° 0 mm 1 mps 756 mmHg 71%
23:00 +24°C° 0 mm 1 mps 755 mmHg 75%

29 October, Thursday

Time Temperature Precipitation Wind Pressure Humidity
00:00 +23°C° 0 mm 1 mps 755 mmHg 79%
01:00 +23°C° 0 mm 1 mps 755 mmHg 77%
02:00 +23°C° 0 mm 2 mps 755 mmHg 76%
03:00 +23°C° 0 mm 2 mps 755 mmHg 74%
04:00 +23°C° 0 mm 2 mps 755 mmHg 73%
05:00 +21°C° 0 mm 2 mps 756 mmHg 72%
06:00 +21°C° 0 mm 2 mps 756 mmHg 70%
07:00 +25°C° 0 mm 2 mps 756 mmHg 60%
08:00 +27°C° 0 mm 2 mps 757 mmHg 50%
09:00 +30°C° 0 mm 1 mps 757 mmHg 40%
10:00 +31°C° 0 mm 1 mps 757 mmHg 35%
11:00 +33°C° 0 mm 1 mps 757 mmHg 30%
12:00 +34°C° 0 mm 1 mps 756 mmHg 25%
13:00 +35°C° 0 mm 3 mps 756 mmHg 27%
14:00 +34°C° 0 mm 4 mps 756 mmHg 29%
15:00 +34°C° 0 mm 5 mps 755 mmHg 30%
16:00 +32°C° 0 mm 4 mps 755 mmHg 39%
17:00 +28°C° 0 mm 3 mps 756 mmHg 48%
18:00 +26°C° 0 mm 2 mps 756 mmHg 57%
19:00 +25°C° 0 mm 2 mps 756 mmHg 61%
20:00 +24°C° 0 mm 1 mps 756 mmHg 66%
21:00 +23°C° 0 mm 1 mps 757 mmHg 71%
22:00 +23°C° 0 mm 1 mps 756 mmHg 72%
23:00 +23°C° 0 mm 1 mps 756 mmHg 73%

30 October, Friday

Time Temperature Precipitation Wind Pressure Humidity
00:00 +22°C° 0 mm 1 mps 756 mmHg 74%
01:00 +21°C° 0 mm 2 mps 756 mmHg 70%
02:00 +23°C° 0 mm 2 mps 756 mmHg 67%
03:00 +22°C° 0 mm 3 mps 756 mmHg 63%
04:00 +22°C° 0 mm 3 mps 756 mmHg 64%
05:00 +23°C° 0 mm 2 mps 757 mmHg 65%
06:00 +23°C° 0 mm 2 mps 757 mmHg 66%
07:00 +26°C° 0 mm 2 mps 757 mmHg 57%
08:00 +28°C° 0 mm 2 mps 757 mmHg 48%
09:00 +31°C° 0 mm 2 mps 758 mmHg 39%
10:00 +32°C° 0 mm 1 mps 757 mmHg 33%
11:00 +34°C° 0 mm 1 mps 757 mmHg 26%
12:00 +35°C° 0 mm 1 mps 756 mmHg 20%
13:00 +36°C° 0 mm 2 mps 756 mmHg 21%
14:00 +36°C° 0 mm 3 mps 755 mmHg 22%
15:00 +36°C° 0 mm 4 mps 755 mmHg 22%
16:00 +33°C° 0 mm 3 mps 755 mmHg 29%
17:00 +30°C° 0 mm 3 mps 755 mmHg 37%
18:00 +28°C° 0 mm 3 mps 756 mmHg 44%
19:00 +27°C° 0 mm 3 mps 756 mmHg 47%
20:00 +27°C° 0 mm 3 mps 756 mmHg 51%
21:00 +26°C° 0 mm 3 mps 756 mmHg 55%
22:00 +25°C° 0 mm 2 mps 756 mmHg 59%
23:00 +24°C° 0 mm 2 mps 756 mmHg 64%
Show more